Simultaneous Nadir Overpasses (SNOs) Predictions

Prediction of SNOs between METOP-A and NOAA-19 Satellite Orbit:

Table of predicted SNOs for the next 14.0 days since TLE Epoch: 12/12/2020
Index Date (METOP-A) Time (METOP-A) Lat,Lon (METOP-A) SZA (METOP-A ) Date (NOAA-19) Time (NOAA-19) Lat,Lon (NOAA-19) SZA (NOAA-19 ) Distance(km) Time Diff (sec)
1 12/18/2020 12:11:52 80.78, 9.61 104.37 12/18/2020 12:10:37 80.80, 9.43 104.38 3.84 75
2 12/18/2020 13:02:33 -80.79, 176.99 75.63 12/18/2020 13:01:37 -80.80, 177.16 75.62 3.13 56
3 12/18/2020 13:53:13 80.80, -15.54 104.40 12/18/2020 13:52:36 80.79, -15.53 104.39 0.40 37
4 12/18/2020 14:43:54 -80.80, 151.84 75.60 12/18/2020 14:43:37 -80.79, 151.83 75.62 1.03 17
5 12/18/2020 15:34:35 80.79, -41.02 104.38 12/18/2020 15:34:36 80.79, -40.86 104.39 3.01 1
6 12/18/2020 16:25:16 -80.79, 126.36 75.62 12/18/2020 16:25:37 -80.79, 126.49 75.61 2.41 21
7 12/18/2020 17:15:56 80.80, -66.17 104.40 12/18/2020 17:16:36 80.79, -66.18 104.40 1.49 40



Historial Predications of SNOs between METOP-A and NOAA-19
